Theta_e
309 310 310 311 311 309 309 311 310 309 309 309 309 310 311 311 309 310 313 314 315 313 315 319 319 319 316 306 307 318 323 325 320 318 314 311 310 309 306 308 306 301 302 304 304 304 305
310 308 308 310 310 309 309 310 310 309 310 309 310 311 310 311 310 309 311 313 315 314 314 317 319 319 310 298 315 319 319 318 318 316 313 313 310 311 307 306 308 306 303 304 304 305 305
308 308 309 308 309 309 309 310 310 309 310 310 310 311 311 311 310 308 309 311 313 315 313 315 318 314 306 302 315 318 318 315 317 316 312 314 314 309 307 304 305 304 300 302 303 301 303
311 311 311 311 311 310 310 310 310 309 309 311 310 310 311 311 311 309 309 310 313 315 313 314 317 312 301 314 315 316 317 314 316 317 317 317 317 310 307 308 305 300 299 297 297 300 301
313 313 313 313 312 311 310 310 309 308 309 311 311 311 311 311 311 310 310 311 313 313 314 316 308 307 297 317 312 314 316 310 313 313 316 318 312 307 306 302 299 298 296 293 295 299 296
313 312 312 312 312 313 312 311 309 309 309 310 310 310 311 310 310 310 310 312 311 310 310 310 309 300 303 301 311 314 315 314 309 308 308 310 305 301 302 300 293 293 294 294 295 296 296
312 312 312 312 312 311 312 312 311 308 309 309 310 310 310 310 310 310 307 302 295 293 302 293 297 299 300 303 311 310 312 310 308 305 298 303 298 295 298 301 300 299 298 296 292 298 295
312 313 313 312 312 312 311 311 311 308 309 309 310 310 310 310 310 310 304 295 295 296 289 298 301 302 304 303 299 305 312 303 302 295 300 297 294 300 303 302 300 298 296 294 296 299 296
312 312 312 312 312 312 311 311 311 308 309 309 310 311 310 310 310 306 299 299 305 302 289 294 300 300 301 303 295 297 307 304 298 296 296 293 297 303 301 299 297 297 295 295 295 297 297
313 313 312 311 311 311 311 311 311 309 310 309 309 311 311 310 301 299 296 304 306 301 284 283 292 297 301 301 294 305 308 303 299 295 296 296 300 300 299 297 299 293 299 298 295 294 290
312 312 312 311 311 311 311 311 310 310 310 309 310 310 310 306 297 295 302 306 305 297 269 286 292 305 301 296 295 299 306 302 296 296 297 294 297 298 296 298 300 295 299 297 296 293 291
312 311 311 311 311 311 311 310 309 310 309 310 310 310 310 303 302 303 304 304 300 279 266 285 293 292 293 294 295 299 300 302 299 296 295 293 297 299 299 300 300 298 294 293 291 290 284
311 311 311 311 311 310 310 309 309 309 309 310 310 308 304 303 297 305 304 297 281 267 280 283 286 291 290 289 291 294 293 292 289 285 285 291 292 294 300 295 297 295 292 282 281 282 282
311 311 311 311 310 309 309 309 309 310 309 309 306 303 300 299 300 305 299 284 274 269 272 286 286 288 286 290 290 292 290 286 288 290 287 285 282 291 297 295 292 292 290 283 277 278 279
310 310 310 310 310 310 309 310 310 310 309 308 304 295 295 297 302 302 290 276 276 275 283 283 285 283 284 288 289 290 289 288 289 290 285 283 284 292 293 296 297 291 288 290 281 275 277
310 310 310 310 310 309 309 310 310 309 308 306 294 292 292 297 300 292 280 278 278 287 286 286 280 283 281 285 285 287 287 290 289 293 291 288 283 289 293 296 296 293 293 282 282 275 272
309 309 309 309 309 309 309 309 309 309 307 303 290 284 292 296 292 283 272 279 283 289 289 285 281 281 283 284 285 285 285 287 290 292 294 289 287 285 290 288 289 287 286 284 284 281 276
309 309 309 310 310 310 309 309 308 307 304 296 285 277 292 292 279 273 273 279 287 287 290 288 287 285 283 284 283 284 284 287 291 292 289 291 288 282 284 290 292 289 286 285 281 278 278
309 309 309 309 309 308 308 307 306 305 304 290 281 282 289 289 271 276 275 282 285 285 285 286 285 287 287 284 280 283 285 289 292 292 289 291 284 279 281 286 287 286 287 286 284 283 279
308 308 308 308 307 307 306 306 305 304 304 290 281 275 279 282 279 276 270 276 279 286 283 285 285 287 284 283 284 282 284 287 291 293 294 293 280 279 278 279 284 282 284 285 285 280 279
307 307 307 306 305 305 305 304 305 303 303 288 277 272 273 271 273 276 279 279 276 275 282 284 283 282 283 279 280 281 284 286 288 290 291 290 276 280 281 281 283 285 286 285 284 283 280
306 305 305 305 304 304 304 304 303 302 299 284 278 276 275 269 278 279 275 273 277 275 280 280 279 281 282 278 280 276 281 284 285 288 287 288 282 282 279 282 284 283 285 286 286 286 285
306 306 305 305 304 304 303 302 302 302 295 284 283 283 281 278 273 273 274 275 279 280 281 282 281 281 280 281 283 287 287 287 286 285 285 285 281 276 273 280 282 279 282 283 284 286 287
306 306 305 305 305 304 303 303 303 302 297 287 284 282 278 270 275 275 279 280 280 280 279 281 282 280 283 287 285 283 282 284 284 283 287 282 279 277 275 277 275 281 281 286 286 284 285
306 305 305 304 304 304 304 304 302 302 298 288 285 282 276 268 274 279 279 279 279 279 279 281 282 283 285 283 276 268 269 273 275 280 281 285 281 275 275 269 275 277 279 283 284 281 283
305 304 304 304 303 303 303 304 302 301 299 288 286 283 281 277 273 281 277 279 271 269 273 280 283 284 284 278 267 261 262 262 267 271 281 280 280 278 266 269 266 276 280 283 285 279 283
305 304 303 303 303 303 303 303 303 301 299 290 286 285 282 275 277 277 274 275 278 274 271 276 279 279 281 270 266 263 262 266 264 265 266 268 269 271 269 271 273 277 280 282 276 279 283
304 303 303 302 302 303 303 302 302 302 299 291 286 286 283 276 279 282 281 277 276 274 270 273 274 274 269 267 263 262 260 268 267 270 274 269 268 266 262 265 271 279 280 278 281 282 283
303 302 302 301 301 301 302 301 301 302 300 293 285 288 287 280 281 286 286 284 282 280 278 278 275 270 277 272 269 265 263 263 263 263 276 268 274 272 273 273 279 281 282 283 282 281 281
Wind_Speed
11 11 12 11 10 9 12 13 11 11 12 10 12 10 7 6 3 4 6 6 7 6 7 10 2 3 2 2 5 1 3 6 4 2 3 3 4 4 6 5 5 6 2 3 6 7 4
13 12 13 11 11 12 11 10 11 9 13 8 10 10 8 8 5 3 5 7 7 6 7 8 5 2 1 3 2 1 2 4 1 2 3 4 3 0 4 3 11 7 3 5 5 5 3
12 12 13 12 14 12 13 11 11 8 12 10 9 10 10 8 7 4 4 7 8 7 6 7 6 2 2 6 2 2 5 4 3 2 4 2 3 2 4 3 1 3 1 3 1 4 2
16 15 15 15 15 15 13 13 13 10 10 8 8 10 10 9 8 5 5 6 7 7 6 7 6 2 5 1 4 1 1 3 4 5 4 4 5 5 2 1 4 4 3 4 1 4 2
20 20 21 21 19 16 15 14 12 11 10 11 8 9 10 9 7 5 5 6 7 5 6 8 3 3 4 6 4 4 2 4 2 3 4 2 5 3 2 6 2 2 6 9 2 2 2
19 19 18 18 16 19 20 18 13 13 10 9 8 8 9 9 6 6 6 6 1 2 5 3 2 3 1 3 4 6 3 5 3 1 4 3 4 2 2 7 11 5 8 1 7 3 3
21 21 21 20 18 17 14 17 14 13 11 8 8 9 10 10 8 6 2 3 3 2 3 6 4 2 1 2 2 6 5 3 4 2 4 3 4 7 8 6 2 10 9 12 3 1 2
21 21 21 18 17 15 14 11 16 13 11 7 7 9 10 10 9 7 4 2 5 3 3 2 3 1 2 2 3 4 7 8 7 7 3 3 4 5 4 5 3 8 13 8 3 3 2
21 21 18 13 12 12 10 9 15 11 10 7 5 10 9 7 8 3 4 5 2 4 3 2 4 3 2 3 4 5 12 3 4 8 8 5 5 8 8 4 4 5 12 12 7 4 3
19 16 9 4 6 7 9 11 14 10 7 6 5 8 8 6 5 4 2 4 2 2 3 4 5 4 2 2 4 3 13 4 4 9 8 3 6 9 7 12 8 4 3 5 8 10 6
14 13 9 8 8 8 11 16 14 10 8 6 6 5 9 5 5 4 2 3 2 4 1 3 5 0 5 4 2 2 1 3 8 6 5 5 10 10 11 9 10 2 5 7 3 4 2
12 14 13 14 15 17 17 15 13 11 8 6 5 8 9 3 3 1 2 2 5 5 7 4 3 8 7 6 2 2 4 3 2 4 3 2 3 3 2 9 8 10 9 8 6 4 4
12 14 14 18 20 18 16 14 13 10 8 7 11 9 5 1 3 1 3 5 4 5 4 3 3 6 11 6 4 6 4 6 4 6 4 2 2 1 1 9 13 6 8 3 2 4 3
14 17 17 19 19 16 14 13 11 10 12 12 10 8 5 3 1 3 6 2 3 2 2 2 1 0 6 5 4 3 9 5 1 1 4 5 4 4 1 2 6 11 5 5 7 6 4
15 17 15 16 16 15 12 12 12 11 12 10 6 3 3 4 2 3 3 4 1 3 2 2 2 4 4 3 2 4 3 4 4 3 3 4 2 3 3 1 10 4 4 2 5 3 4
13 14 13 15 14 12 11 12 10 10 5 5 3 3 2 8 1 4 5 1 1 2 1 2 1 1 5 10 7 11 9 1 5 3 2 3 4 2 5 2 3 3 6 4 1 4 2
12 12 10 13 12 13 11 11 10 4 5 6 5 4 3 6 4 6 4 2 3 3 4 2 1 0 1 7 6 4 8 1 1 6 2 4 3 1 4 1 5 4 3 4 3 2 5
11 12 11 13 14 13 11 10 5 4 5 8 3 4 3 3 6 2 3 2 3 2 2 1 2 1 2 2 3 4 5 2 1 3 7 5 3 2 2 4 3 2 5 4 3 3 1
13 14 12 13 14 11 9 6 5 4 4 4 3 1 3 4 4 1 4 2 2 4 3 2 1 2 0 1 5 3 4 1 5 2 5 5 3 2 3 4 3 3 3 4 4 3 1
11 11 9 10 10 7 7 3 4 6 4 5 4 3 5 5 2 6 3 2 3 3 0 2 3 2 1 3 4 4 4 2 2 2 5 2 3 5 4 4 6 5 4 4 4 3 1
8 8 7 6 6 5 4 2 1 5 7 6 4 2 3 0 4 3 1 3 2 4 4 7 2 5 1 4 3 4 3 4 3 3 3 1 3 3 2 3 1 2 6 5 3 3 4
8 7 6 5 7 7 4 4 3 5 9 6 5 5 2 2 1 2 5 3 2 4 4 5 5 9 8 5 3 3 1 2 2 2 2 2 2 3 5 7 2 1 6 13 7 5 4
10 9 7 5 7 9 6 6 6 7 9 4 1 1 5 3 2 4 1 3 2 2 3 5 2 4 11 5 3 7 8 6 4 2 3 3 4 3 3 4 4 4 7 7 5 4 9
10 9 8 7 7 9 7 9 10 8 7 5 3 3 5 2 3 2 2 3 3 2 4 3 5 3 2 6 2 2 6 9 11 10 4 4 4 3 1 3 3 4 4 4 9 3 2
11 9 7 7 5 10 9 8 12 13 11 5 2 4 4 2 1 2 4 5 3 4 4 3 4 1 3 6 4 7 7 7 7 6 8 5 4 4 4 3 4 2 3 5 6 4 2
13 10 7 7 5 8 9 8 10 15 13 6 3 2 4 8 5 2 3 1 2 2 4 2 1 3 5 4 5 4 1 3 5 7 2 7 6 3 1 5 6 3 1 1 1 2 8
15 12 8 6 6 6 7 7 8 13 12 6 3 3 4 6 3 3 3 4 4 4 3 3 5 5 4 3 4 3 1 1 1 0 3 4 4 4 1 1 6 5 4 3 7 6 6
15 13 10 6 5 6 6 6 4 9 11 6 1 2 5 4 2 3 3 4 3 3 5 4 5 5 4 5 4 3 3 4 1 3 3 4 5 3 3 3 5 1 1 5 3 4 7
16 14 12 9 6 7 5 6 6 0 11 8 4 2 2 7 3 2 4 2 2 3 5 1 4 4 4 5 2 4 2 2 1 3 2 2 5 4 7 5 2 2 3 2 2 5 4
Wind_Direction
288 294 289 274 269 264 264 275 249 241 243 257 270 270 280 270 294 314 314 318 306 312 319 331 284 6 351 221 255 305 295 276 304 129 93 151 153 145 157 165 117 142 266 287 288 295 279
299 283 275 277 270 271 257 263 264 265 262 241 245 263 259 274 264 298 303 308 309 295 310 329 307 79 276 230 301 332 11 337 316 80 70 40 137 13 122 181 205 162 189 275 287 311 298
289 282 277 268 268 258 258 261 238 251 245 239 242 248 256 267 248 269 295 302 308 288 292 300 301 119 332 239 207 109 343 347 340 251 110 72 89 62 137 111 229 135 107 308 4 327 282
274 271 268 260 258 254 251 239 251 246 247 237 244 261 251 250 245 256 294 290 296 283 291 283 285 184 238 115 136 115 83 2 358 23 84 103 44 99 30 48 33 114 81 242 9 333 36
281 277 274 264 258 254 242 237 227 236 239 241 241 261 242 229 242 241 277 284 291 272 282 263 137 232 243 116 167 197 194 137 35 24 46 111 69 102 70 133 132 171 198 203 212 20 289
294 291 285 277 270 254 250 239 222 218 222 233 231 238 230 223 225 241 273 286 292 269 289 92 54 160 216 221 161 183 223 167 94 62 85 55 75 133 162 181 218 161 193 104 206 342 32
293 286 280 275 264 258 245 240 219 206 208 213 227 232 214 216 221 231 297 70 51 17 275 188 219 210 149 294 73 200 193 170 126 260 172 134 180 195 188 198 338 163 188 200 133 306 147
302 295 287 277 264 244 242 229 208 194 198 216 231 208 203 213 221 225 126 221 208 173 194 263 251 121 142 195 165 225 171 182 173 188 144 112 240 179 115 148 193 215 185 173 95 333 128
311 301 291 273 256 233 220 206 190 183 188 198 205 189 199 213 223 206 180 231 322 112 74 236 231 163 112 17 231 226 179 193 184 169 194 177 145 166 163 167 167 199 207 178 160 142 95
328 323 306 256 210 191 189 178 170 164 163 188 207 204 207 220 125 158 205 291 47 305 45 250 214 238 135 317 270 185 195 192 201 177 168 236 160 171 190 196 177 182 162 120 115 161 204
3 31 65 103 129 142 145 144 143 134 148 164 170 179 156 138 148 120 324 32 37 56 38 210 158 171 151 210 310 139 68 116 173 186 160 182 171 178 193 198 175 128 169 144 121 117 104
37 62 82 96 108 118 126 130 132 144 157 171 147 140 129 68 62 37 341 103 47 64 252 177 160 185 150 181 283 124 169 44 47 107 21 86 309 182 159 127 130 129 89 67 57 76 235
60 78 95 103 107 113 121 129 135 144 156 145 105 93 74 51 105 5 70 47 175 145 271 195 185 186 178 166 226 173 156 136 156 143 166 160 12 344 248 106 138 111 139 108 145 190 212
77 89 96 101 107 113 121 126 132 135 124 109 103 82 75 68 37 138 75 107 111 213 238 344 297 157 186 139 253 198 148 130 343 240 134 160 185 179 284 170 156 147 142 162 177 183 141
89 96 102 105 110 116 124 126 119 118 118 112 90 16 46 344 7 121 99 53 165 206 265 307 245 149 183 170 147 176 210 135 162 214 122 138 112 336 218 159 148 145 167 79 99 47 86
98 102 109 111 112 115 123 126 125 114 85 109 86 68 15 321 353 72 77 132 321 231 255 251 276 358 171 171 173 182 162 152 158 224 57 183 110 357 325 102 332 182 144 80 5 139 162
111 109 116 116 117 121 127 132 138 142 33 105 58 62 260 336 52 49 114 228 278 261 180 291 288 195 302 179 181 180 174 24 169 147 20 134 52 124 318 322 162 151 134 207 127 136 159
123 117 119 122 119 123 129 132 135 303 126 51 94 58 315 29 54 38 141 203 292 338 19 17 289 3 302 107 125 150 163 63 60 151 167 178 99 175 179 249 235 326 178 173 132 222 342
126 121 124 121 111 108 110 114 100 66 130 111 75 189 337 81 117 291 311 334 315 2 17 322 333 336 39 77 107 142 116 41 171 103 172 159 173 147 71 318 64 218 213 108 109 69 168
140 133 130 126 123 130 129 109 62 58 119 81 87 50 337 51 106 122 120 311 352 324 297 321 14 293 94 56 42 150 122 68 53 108 53 108 119 183 196 201 143 177 177 147 98 96 179
139 143 142 142 132 129 127 147 58 59 101 90 30 235 190 203 349 80 92 152 49 356 340 24 64 360 10 71 36 33 71 124 63 13 61 74 125 103 50 321 309 158 165 134 129 170 154
133 139 137 134 123 116 113 103 81 81 90 81 133 140 359 135 234 123 353 323 119 288 18 15 77 37 58 75 360 195 160 57 111 94 87 23 107 71 10 5 163 172 195 176 158 103 96
135 131 125 127 119 108 104 112 126 102 89 103 222 27 103 331 39 79 244 211 103 119 62 58 4 67 52 27 359 66 66 62 74 110 115 109 127 93 259 345 36 338 214 169 139 147 150
139 133 126 112 104 101 97 103 113 118 122 123 188 112 85 272 94 154 114 81 38 17 124 356 19 74 331 303 240 52 74 72 54 44 33 117 97 51 134 32 187 268 313 192 124 71 112
145 140 130 107 87 90 81 83 94 106 119 100 135 112 118 99 194 55 91 119 98 77 57 56 8 331 309 25 51 24 349 12 18 28 26 42 111 94 157 187 288 4 195 151 143 220 227
149 142 127 104 75 75 74 64 94 106 104 93 82 98 105 119 258 131 111 85 152 68 18 5 9 338 58 69 61 97 153 213 331 343 100 99 60 113 63 136 191 208 158 286 223 274 189
152 143 130 105 79 58 63 63 75 93 107 102 87 88 88 107 253 119 145 164 131 86 96 323 341 23 28 60 74 124 287 183 304 42 297 26 16 109 80 227 290 242 263 287 114 232 129
155 143 130 107 79 67 52 41 68 119 114 97 82 25 112 99 2 6 7 120 63 75 136 242 45 341 34 65 101 216 128 218 48 238 199 168 131 170 88 60 271 309 51 166 194 53 111
158 148 138 123 96 70 52 42 12 60 129 112 96 351 30 77 111 52 82 57 43 184 130 142 168 170 177 101 131 98 140 38 154 263 198 271 184 183 186 213 249 269 285 9 87 114 115